Carlsbad, NM

1:35 PM MST on January 18, 2017 (GMT -0700)
Cavern City

Weather History for KCNM - February, 2013

Change the Weather History Date:

Wednesday, February 20, 2013

  Actual Average Record
Temperature  
Mean Temperature 52 °F -  
Max Temperature 66 °F 65 °F 84 °F (2011)
Min Temperature 37 °F 35 °F 16 °F (1955)
Degree Days  
Heating Degree Days 14    
Growing Degree Days 2 (Base 50)    
Moisture  
Dew Point 33 °F    
Average Humidity 56    
Maximum Humidity 89    
Minimum Humidity 22    
Precipitation  
Precipitation 0.00 in - - ()
Sea Level Pressure  
Sea Level Pressure 29.63 in    
Wind  
Wind Speed 12 mph (South)    
Max Wind Speed 38 mph    
Max Gust Speed 48 mph    
Visibility 9 miles    
Events      
Averages and records for this station are not official NWS values.
T = Trace of Precipitation, MM = Missing Value Source: NWS Daily Summary

Daily Weather History Graph

Daily Weather History Graph

Search for Another Location

Airport or City:

Trip Planner

Search our weather history database for the weather conditions in past years. The results will help you decide how hot, cold, wet, or windy it might be!

Date:

Astronomy

Feb. 20, 2013 Rise Set
Actual Time 6:34 AM MST 5:47 PM MST
Civil Twilight 6:09 AM MST 6:12 PM MST
Nautical Twilight 5:40 AM MST 6:41 PM MST
Astronomical Twilight 5:12 AM MST 7:09 PM MST
Moon 1:20 PM MST (2/20) 2:46 AM MST (2/20)
Length of Visible Light 12h 03m
Length of Day
11h 13m
Waxing Gibbous, 76% of the Moon is Illuminated
Feb 20
Waxing Gibbous
Feb 25
Full
Mar 4
Last Quarter
Mar 11
New
Mar 19
First Quarter

Hourly Weather History & Observations

Time (MST) Temp. Windchill Dew Point Humidity Pressure Visibility Wind Dir Wind Speed Gust Speed Precip Events Conditions
12:53 AM 44.1 °F 37.4 °F 39.0 °F 82% 29.83 in 10.0 mi South 13.8 mph - N/A   Mostly Cloudy
1:53 AM 44.1 °F 40.1 °F 37.9 °F 79% 29.82 in 10.0 mi South 6.9 mph - N/A   Mostly Cloudy
2:53 AM 43.0 °F 37.2 °F 37.0 °F 80% 29.78 in 10.0 mi South 10.4 mph - N/A   Partly Cloudy
3:53 AM 41.0 °F 36.4 °F 36.0 °F 82% 29.77 in 10.0 mi SSE 6.9 mph - N/A   Clear
4:53 AM 39.9 °F 35.8 °F 35.1 °F 83% 29.77 in 10.0 mi SSE 5.8 mph - N/A   Clear
5:53 AM 37.0 °F 33.3 °F 34.0 °F 89% 29.73 in 10.0 mi ESE 4.6 mph - N/A   Clear
6:53 AM 37.0 °F 32.4 °F 34.0 °F 89% 29.74 in 10.0 mi SSE 5.8 mph - N/A   Clear
7:53 AM 43.0 °F 38.8 °F 36.0 °F 76% 29.72 in 10.0 mi SE 6.9 mph - N/A   Clear
8:37 AM 44.6 °F 37.4 °F 39.2 °F 81% 29.76 in 10.0 mi SSE 16.1 mph 23.0 mph N/A   Mostly Cloudy
8:53 AM 46.0 °F 38.3 °F 39.9 °F 79% 29.71 in 10.0 mi SE 20.7 mph 26.5 mph N/A   Overcast
9:17 AM 46.4 °F 40.1 °F 39.2 °F 76% 29.76 in 10.0 mi SE 15.0 mph - N/A   Scattered Clouds
9:53 AM 48.0 °F - 41.0 °F 77% 29.69 in 10.0 mi SE 17.3 mph 21.9 mph N/A   Clear
10:53 AM 52.0 °F - 41.0 °F 66% 29.66 in 10.0 mi SE 15.0 mph - N/A   Clear
11:53 AM 55.0 °F - 42.1 °F 62% 29.61 in 10.0 mi SE 12.7 mph - N/A   Clear
12:53 PM 60.1 °F - 43.0 °F 53% 29.55 in 10.0 mi SE 10.4 mph 18.4 mph N/A   Clear
1:53 PM 63.0 °F - 39.9 °F 43% 29.48 in 10.0 mi ESE 6.9 mph - N/A   Clear
2:53 PM 66.2 °F - 33.8 °F 30% 29.53 in 10.0 mi SSE 9.2 mph 17.3 mph N/A   Clear
3:53 PM 66.9 °F - 32.0 °F 27% 29.42 in 10.0 mi SSE 5.8 mph - N/A   Clear
4:53 PM 66.0 °F - 32.0 °F 28% 29.41 in 10.0 mi Calm Calm - N/A   Partly Cloudy
5:53 PM 61.0 °F - 26.1 °F 26% 29.44 in 10.0 mi West 11.5 mph - N/A   Mostly Cloudy
6:53 PM 59.0 °F - 23.0 °F 25% 29.48 in 7.0 mi West 11.5 mph - N/A   Mostly Cloudy
7:28 PM 59.0 °F - 21.2 °F 23% 29.55 in 5.0 mi West 18.4 mph 24.2 mph N/A   Haze
7:53 PM 59.0 °F - 19.9 °F 22% 29.48 in 6.0 mi West 16.1 mph 24.2 mph N/A   Haze
8:53 PM 57.2 °F - 19.4 °F 23% 29.55 in 9.0 mi West 16.1 mph - N/A   Overcast
9:53 PM 55.9 °F - 21.9 °F 27% 29.51 in 8.0 mi West 28.8 mph 36.8 mph N/A   Overcast
10:53 PM 48.9 °F - 28.9 °F 46% 29.56 in 10.0 mi West 38.0 mph 48.3 mph N/A   Clear
11:53 PM 45.0 °F 36.9 °F 24.1 °F 44% 29.60 in 10.0 mi West 20.7 mph 42.6 mph N/A   Clear